GLOBALSTAR M004 DEB, 43356

Orbit data source: Space-Track

GLOBALSTAR M004 DEB, 43356 is space debris in LEO originally from a launch on Sat, 14 Feb 1998 UTC launched from the Air Force Eastern Test Range (AFETR). Debris objects in space refer to the collection of defunct objects orbiting the Earth. Examples of debris include non-operational satellites, rocket bodies, and fragments generated from explosions, collisions, or faulty payload assembly.

Loading next visibility...
Identifier
43356, 1998-008G
Orbit
LEO
Country
Flag of USUS
Related business
Manufacturer
Unknown
Mission
Spacecraft
Bus & Motor
Unknown
Mass
Unknown
Launch date (UTC)
1998-02-14 (28 years ago)
Launch vehicle
Unknown
Launch site
Air Force Eastern Test Range (AFETR)
Object type
Payload
Rocket body
Debris
Shape & HBR
Unknown
Radar Cross Section
Small (<0.1 m²)

Expand to show TLE details & history
Last TLE update: 3 days ago

TLE from 3 days ago
0 GLOBALSTAR M004 DEB
1 43356U 98008G   25258.32956281  .00000952  00000-0  47409-2 0  9996
2 43356  51.9012 238.0477 0049392 337.4129  22.4570 12.78248067450136
Epoch: 2025-09-15T07:54Z
TLE epoch observation values (Epoch: 2025-09-15T07:54:34.226Z)
Latitude
-0.00008°
Longitude
124.86925°
Altitude
1,313.959 km
Speed
7.217 km/s
True Right ascension
15h 52m 11s
True Declination
0° 00' 00"
Sunlit
Object was in daylight at epoch
Visualization orbit readout
Latitude
Unknown
Longitude
Unknown
Altitude
Unknown
Speed
Unknown
Apparent Right ascension
Unknown
Apparent Declination
Unknown
Sunlit
N/A
Visualization observer readout
Local Sidereal Time
00:57:06
Azimuth
Unknown
Elevation
Unknown
Doppler factor
Unknown
Orbital elements
Apogee altitude
1,387.097 km
Perigee altitude
1,310.766 km
Semi-major axis
7,727.069 km
Eccentricity
0.00494
Inclination
51.9012°
RAAN
238.0477°
Arg. of periapsis
337.4129°
True anomaly
22.67444°
Mean anomaly
22.457°
Eccentric anomaly
22.5656°
Mean motion
3.19537 °/min
Orbital period
112.66 mins
BSTAR
0.0047409
Loading maneuver chart data...
Computing Atmospheric mass density...
Loading historical data...
Loading historical data...
Loading historical data...
Loading historical data...
Loading historical data...
Loading historical data...
Loading historical data...

Documentation

Showing up to 5 results
|